FLOCK 2K-46

Last updated on Wed Feb 14 2018 16:20:52 GMT+0000 (Greenwich Mean Time)

1 42858U 17042AK 18045.45898681 .00006946 00000-0 20235-3 0 9998 2 42858 96.9930 308.2381 0010058 186.0820 174.0304 15.35635792 32795
UTC large
Height (km)
Speed (km/s)
/
Latitude / Longitude
Inclination (degrees)
Orbital Period (minutes)
Azimuth
Elevation
Range (km)
Doppler Factor

Next 0 passes for location: London (51.5072 / 0.1276)

Sorry there are no passes over London.